{"data":{"norad_id":67975,"intl_designator":"2026-038Q","name":"STARLINK-36883","alt_names":[],"object_type":"PAYLOAD","status":"ACTIVE","operator":null,"country":"US","launch_date":"2026-02-25","launch_site_code":"AFWTR","launch_vehicle":null,"mission":null,"orbit_class":"UNKNOWN","rcs_meters":null,"size_class":null,"mass_kg":null,"dimensions":null,"purposes":["comms"],"wikipedia_slug":null,"has_3d_model":false,"image_url":null,"decayed_at":null,"tle_current":{"epoch":"2026-05-24T23:31:43.356288Z","epoch_age_seconds":76786,"freshness":"FRESH","line1":"1 67975U 26038Q   26144.98036292  .00016513  00000+0  51268-3 0  9999","line2":"2 67975  97.2850 155.0518 0000859  53.1684 306.9638 15.33447490 14933","mean_motion":15.3344749,"eccentricity":8.59e-5,"inclination_deg":97.285,"raan_deg":155.0518,"arg_perigee_deg":53.1684,"mean_anomaly_deg":306.9638,"bstar":0.00051268,"rev_number":1493,"period_min":93.906052172677,"perigee_km":464.94789450942,"apogee_km":466.12363749062,"semimajor_km":6843.672766,"source":"CELESTRAK","updated_at":"2026-05-25T13:38:21.775930Z"}}}